[[{"header":{"parameterUnit":"m.s-1","parameterCategory":1,"la1":30.2991,"la2":30.254,"lo1":-89.0895,"lo2":-89.0444,"dy":0.0017,"dx":0.0017,"nx":28,"ny":28,"refTime":"2025-07-24T03:00:00:Z","depth":0,"parameterNumber":2,"parameterNumberName":"U-component_of_WINDS"},"data":[0,0,0,0,0,0,0,0,0,0,0,0,0,0,0,0,0,0,0,0,0,0,0,0,0,0,0,0,0,0,0,0,0,0,0,0,0,0,0,0,0,0,0,0,0,0,0,0,0,0,0,0,0,0,0,0,0,0,-3.1766,-3.1767,0,-3.1865,-3.1866,-3.1867,-3.1892,-3.1891,-3.1891,-3.189,-3.199,-3.1993,-3.1996,0,0,0,0,0,0,0,0,0,0,0,0,0,-3.1598,-3.1601,-3.1766,-3.1767,-3.1769,-3.1864,-3.1866,-3.1867,-3.1892,-3.1891,-3.1891,-3.189,-3.1989,-3.1992,-3.1996,0,0,0,0,0,0,0,0,0,0,0,0,0,-3.1681,-3.1602,-3.1766,-3.1793,-3.1796,-3.1864,-3.1866,-3.1867,-3.1892,-3.1891,-3.189,-3.189,-3.1987,-3.1992,-3.1997,-3.2045,0,0,-3.2011,-3.2014,0,0,0,0,0,0,0,0,-3.1676,-3.1687,-3.1787,-3.1791,-3.1795,-3.1865,-3.1843,-3.1927,-3.1892,-3.1856,-3.189,-3.1889,-3.1949,-3.1957,-3.1977,-3.205,-3.2054,-3.2012,-3.2015,-3.2017,-3.2018,0,0,0,0,0,0,0,-3.1671,-3.1683,-3.1805,-3.1789,-3.1793,-3.1799,-3.181,-3.1859,-3.1906,-3.1859,-3.1861,-3.1872,-3.1951,-3.1972,-3.198,-3.2055,-3.2012,-3.2016,-3.2019,-3.2021,-3.2171,-3.2172,0,0,0,0,0,0,-3.166,-3.1678,-3.1802,-3.1808,-3.1732,-3.1803,-3.1815,-3.1843,-3.1906,-3.1914,-3.1873,-3.1873,-3.1965,-3.1974,-3.1983,-3.2043,-3.2017,-3.2021,-3.2024,-3.217,-3.2171,-3.2172,0,0,0,0,0,0,-3.1657,-3.1671,-3.1798,-3.1744,-3.176,-3.1807,-3.1838,-3.1846,-3.1868,-3.1916,-3.1925,-3.1887,-3.1964,-3.1977,-3.2029,-3.2047,-3.2024,-3.2028,-3.2169,-3.217,-3.2172,-3.2163,0,0,0,0,0,0,-3.1652,-3.167,-3.1689,-3.1744,-3.1763,-3.1843,-3.184,-3.1848,-3.1876,-3.1877,-3.1931,-3.194,-3.1965,-3.2022,-3.2034,-3.2053,-3.2032,-3.2167,-3.2169,-3.2171,-3.2162,-3.2164,-3.2166,0,0,0,0,0,-3.1646,-3.1682,-3.169,-3.1705,-3.1788,-3.1844,-3.1854,-3.1883,-3.1877,-3.1897,-3.1928,-3.1938,-3.2043,-3.2027,-3.2041,-3.2061,-3.2166,-3.2169,-3.2171,-3.2161,-3.2163,-3.2166,0,0,0,0,0,0,-3.1628,-3.169,-3.1699,-3.1755,-3.1794,-3.1848,-3.1873,-3.1885,-3.1926,-3.1925,-3.1958,-3.197,-3.2021,-3.2047,-3.2028,-3.2111,-3.2105,-3.211,-3.2092,-3.2095,-3.2097,-3.2089,-3.2036,0,0,0,0,0,-3.1631,-3.1671,-3.1723,-3.1767,-3.1786,-3.1826,-3.1851,-3.187,-3.1911,-3.1928,-3.1963,-3.2003,-3.2044,-3.2071,-3.2113,-3.2166,-3.2177,-3.2187,-3.2189,-3.219,-3.2194,-3.2223,-3.2227,-3.2181,-3.2181,-3.218,0,0,-3.1636,-3.1675,-3.1699,-3.1764,-3.1797,-3.1837,-3.184,-3.1883,-3.1913,-3.1934,-3.1986,-3.2013,-3.2059,-3.2112,-3.2137,-3.2135,-3.221,-3.2193,-3.2194,-3.2197,-3.2226,-3.223,-3.2234,-3.2182,-3.2182,-3.2182,0,0,-3.1667,-3.1701,-3.1741,-3.1773,-3.1822,-3.1849,-3.1858,-3.1911,-3.1929,-3.1982,-3.1999,-3.2035,-3.2107,-3.2139,-3.2164,-3.2206,-3.2217,-3.2219,-3.2229,-3.2257,-3.226,-3.2264,-3.2278,-3.2282,-3.2223,-3.2223,-3.2223,0,-3.1667,-3.1729,-3.176,-3.1801,-3.1829,-3.1851,-3.1891,-3.1921,-3.1981,-3.2,-3.1997,-3.2087,-3.212,-3.218,-3.219,-3.2211,-3.2222,-3.2212,-3.2258,-3.2261,-3.2265,-3.2278,-3.2284,-3.2223,-3.2223,-3.2223,-3.2223,0,-3.1727,-3.1769,-3.1796,-3.1853,-3.1884,-3.1925,-3.1961,-3.1988,-3.2004,-3.2031,-3.2083,-3.2123,-3.2173,-3.2189,-3.2205,-3.2251,-3.2248,-3.2251,-3.2245,-3.2269,-3.2282,-3.2287,-3.2223,-3.2223,-3.2223,-3.2223,0,0,-3.1749,-3.1822,-3.1831,-3.1857,-3.1912,-3.1945,-3.1987,-3.2035,-3.2058,-3.2099,-3.2133,-3.2194,-3.2197,-3.2226,-3.2245,-3.227,-3.2299,-3.227,-3.2272,-3.2273,-3.2351,-3.2347,-3.2353,-3.2307,-3.2308,-3.2309,-3.2347,0,-3.1785,-3.186,-3.1888,-3.1949,-3.1988,-3.2009,-3.2045,-3.2083,-3.2109,-3.2145,-3.2174,-3.2215,-3.2217,-3.2234,-3.226,-3.229,-3.2315,-3.2288,-3.2338,-3.234,-3.2325,-3.236,-3.2357,-3.239,-3.2352,-3.2353,-3.2354,0,-3.1837,-3.1878,-3.1943,-3.1993,-3.201,-3.2042,-3.2088,-3.2123,-3.2166,-3.2183,-3.2215,-3.2234,-3.2277,-3.2269,-3.2329,-3.231,-3.2332,-3.235,-3.2352,-3.2357,-3.2347,-3.2364,-3.2402,-3.2406,-3.2363,-3.2362,-3.2361,0,-3.1845,-3.1916,-3.1964,-3.1986,-3.2045,-3.2067,-3.2093,-3.2135,-3.2162,-3.2202,-3.222,-3.2265,-3.2289,-3.2324,-3.2353,-3.2345,-3.2409,-3.2405,-3.2424,-3.2423,-3.2435,-3.2434,-3.2476,-3.2452,-3.2452,-3.2452,-3.2452,0,-3.1882,-3.192,-3.1968,-3.1997,-3.204,-3.2072,-3.2114,-3.2142,-3.2179,-3.2213,-3.2235,-3.2266,-3.2304,-3.2341,-3.2364,-3.2409,-3.242,-3.2434,-3.244,-3.2432,-3.243,-3.2446,-3.2444,-3.2453,-3.2453,-3.2453,-3.2452,0,-3.1897,-3.1931,-3.1984,-3.2036,-3.205,-3.2079,-3.2124,-3.2153,-3.218,-3.2223,-3.2235,-3.2276,-3.232,-3.2353,-3.2411,-3.2426,-3.2474,-3.248,-3.2459,-3.2462,-3.2479,-3.2476,-3.2531,-3.2539,-3.2511,-3.2511,-3.2512,0,-3.1918,-3.1948,-3.2003,-3.2027,-3.2053,-3.2093,-3.212,-3.2153,-3.2181,-3.2232,-3.2254,-3.2299,-3.2337,-3.2406,-3.2442,-3.2485,-3.2492,-3.2508,-3.2498,-3.2489,-3.2491,-3.2488,-3.2491,-3.2509,-3.2509,-3.2509,-3.2509,0,-3.195,-3.1965,-3.2005,-3.2049,-3.2082,-3.2119,-3.2156,-3.2175,-3.2214,-3.2244,-3.2289,-3.2319,-3.2377,-3.2421,-3.2468,-3.2494,-3.2508,-3.2512,-3.2519,-3.251,-3.2496,-3.2503,-3.2461,-3.2511,-3.251,-3.251,-3.251,-3.251,-3.1968,-3.1995,-3.2038,-3.2081,-3.2112,-3.2146,-3.2176,-3.2206,-3.2244,-3.2294,-3.2311,-3.2357,-3.2399,-3.2463,-3.249,-3.2526,-3.2526,-3.2536,-3.2538,-3.254,-3.2539,-3.2491,-3.2535,-3.2535,-3.2535,-3.2535,-3.2535,0,-3.2001,-3.2029,-3.2068,-3.2119,-3.2153,-3.2163,-3.2205,-3.2232,-3.2272,-3.231,-3.2347,-3.2398,-3.2442,-3.248,-3.2525,-3.2546,-3.2554,-3.2557,-3.2555,-3.2561,-3.2537,-3.2526,-3.255,-3.255,-3.255,-3.255,-3.255,-3.255,-3.2022,-3.2068,-3.2088,-3.2149,-3.2178,-3.2223,-3.2246,-3.2277,-3.2307,-3.2364,-3.24,-3.2425,-3.2463,-3.251,-3.255,-3.256,-3.2575,-3.2576,-3.2588,-3.2564,-3.2563,-3.2561,-3.2551,-3.258,-3.258,-3.2609,-3.2609,-3.2609]},{"header":{"parameterUnit":"m.s-1","parameterCategory":1,"la1":30.2991,"la2":30.254,"lo1":-89.0895,"lo2":-89.0444,"dy":0.0017,"dx":0.0017,"nx":28,"ny":28,"refTime":"2025-07-24T03:00:00:Z","depth":0,"parameterNumber":3,"parameterNumberName":"V-component_of_WINDS"},"data":[0,0,0,0,0,0,0,0,0,0,0,0,0,0,0,0,0,0,0,0,0,0,0,0,0,0,0,0,0,0,0,0,0,0,0,0,0,0,0,0,0,0,0,0,0,0,0,0,0,0,0,0,0,0,0,0,0,0,4.8882,4.8883,0,4.896,4.896,4.8961,4.89,4.8897,4.8895,4.8892,4.8967,4.8971,4.8976,0,0,0,0,0,0,0,0,0,0,0,0,0,4.8676,4.868,4.8882,4.8883,4.8884,4.8959,4.8961,4.8962,4.89,4.8897,4.8894,4.8891,4.8966,4.8971,4.8976,0,0,0,0,0,0,0,0,0,0,0,0,0,4.8761,4.8682,4.8882,4.8863,4.8862,4.8959,4.8961,4.8962,4.8901,4.8897,4.8893,4.889,4.8964,4.897,4.8977,4.9096,0,0,4.8997,4.9,0,0,0,0,0,0,0,0,4.8756,4.8768,4.8865,4.8864,4.8863,4.8916,4.8915,4.9007,4.8902,4.8886,4.8892,4.8888,4.8953,4.896,4.8983,4.9099,4.9103,4.8998,4.9002,4.9005,4.9006,0,0,0,0,0,0,0,4.875,4.8765,4.8913,4.8866,4.8865,4.8849,4.8856,4.8932,4.894,4.8887,4.8883,4.8893,4.8952,4.8977,4.8985,4.9104,4.8998,4.9003,4.9008,4.901,4.9319,4.9323,0,0,0,0,0,0,4.8747,4.876,4.891,4.8915,4.8799,4.8856,4.8864,4.8903,4.8939,4.8941,4.8896,4.889,4.8968,4.8977,4.8987,4.9127,4.9005,4.9011,4.9015,4.9314,4.932,4.9324,0,0,0,0,0,0,4.8743,4.8761,4.8907,4.8837,4.8854,4.8863,4.8908,4.8907,4.8932,4.8946,4.8947,4.8921,4.8965,4.8978,4.9069,4.9128,4.9014,4.902,4.9309,4.9316,4.9322,4.9408,0,0,0,0,0,0,4.8737,4.876,4.8807,4.8838,4.8858,4.899,4.8911,4.8911,4.8944,4.8936,4.897,4.8971,4.8963,4.9059,4.9076,4.9135,4.9025,4.9304,4.9312,4.932,4.94,4.9417,4.9431,0,0,0,0,0,4.873,4.8827,4.8809,4.8828,4.8917,4.8993,4.9004,4.8994,4.8949,4.8995,4.9004,4.897,4.912,4.9069,4.9087,4.915,4.93,4.931,4.9319,4.9393,4.9413,4.9431,0,0,0,0,0,0,4.8801,4.8831,4.8811,4.8922,4.8956,4.8983,4.904,4.9016,4.9062,4.9053,4.9037,4.9045,4.914,4.9154,4.9098,4.9265,4.9203,4.9216,4.9253,4.9272,4.9287,4.9281,4.903,0,0,0,0,0,4.883,4.8892,4.8914,4.9009,4.9027,4.9031,4.9064,4.9053,4.9087,4.91,4.9116,4.9149,4.9202,4.9238,4.9289,4.9402,4.9407,4.9454,4.9469,4.9482,4.9493,4.9552,4.9572,4.9355,4.9355,4.9355,0,0,4.889,4.8914,4.8953,4.9024,4.9049,4.9111,4.9043,4.9112,4.9157,4.911,4.9197,4.921,4.9245,4.9347,4.9393,4.9362,4.9554,4.9494,4.9504,4.9508,4.9563,4.9584,4.9602,4.9362,4.9361,4.936,0,0,4.903,4.9055,4.9136,4.9163,4.9201,4.9203,4.9223,4.9254,4.9261,4.9348,4.9314,4.9366,4.946,4.9486,4.9511,4.966,4.963,4.9677,4.9757,4.9814,4.9831,4.9846,4.9897,4.9915,4.9689,4.9689,4.9689,0,4.9098,4.9192,4.9181,4.9252,4.9283,4.9245,4.9325,4.9351,4.9404,4.9425,4.939,4.9506,4.9527,4.9634,4.967,4.9693,4.9713,4.9672,4.983,4.9845,4.9859,4.9907,4.9926,4.9694,4.9694,4.9693,4.9693,0,4.9273,4.9338,4.9399,4.9452,4.949,4.9565,4.9564,4.9604,4.9589,4.9594,4.9682,4.9707,4.976,4.9785,4.9772,4.989,4.9869,4.9833,4.9768,4.9885,4.9929,4.9948,4.9702,4.97,4.9698,4.9697,0,0,4.9459,4.9505,4.9527,4.955,4.9589,4.9638,4.9711,4.9765,4.9798,4.9836,4.9895,4.9975,4.9941,4.997,4.9959,5.001,5.0123,4.9967,4.9967,4.9993,5.0251,5.0277,5.0298,5.0104,5.0108,5.0111,5.0247,0,4.9599,4.9727,4.9719,4.9839,4.9897,4.9861,4.9924,4.9955,4.9961,5.001,5.0017,5.0073,5.0026,5.0042,5.0091,5.0099,5.0174,5.0089,5.0156,5.0159,5.0146,5.0322,5.035,5.0478,5.0265,5.0268,5.027,0,4.9779,4.9823,4.9949,4.9978,5.0003,5.006,5.0107,5.0156,5.0188,5.0189,5.0222,5.0202,5.0273,5.0209,5.0306,5.0248,5.0275,5.0283,5.0288,5.0292,5.022,5.0328,5.0519,5.0537,5.0298,5.0296,5.0294,0,4.9899,4.999,5.0077,5.0098,5.0135,5.0175,5.0192,5.0221,5.0253,5.0295,5.0315,5.0364,5.039,5.0428,5.0421,5.0375,5.0518,5.0454,5.0519,5.0519,5.0549,5.0547,5.0744,5.0571,5.057,5.057,5.057,0,5.0054,5.0132,5.0131,5.0184,5.0269,5.0258,5.0343,5.0355,5.0381,5.0434,5.0406,5.0456,5.0445,5.0495,5.049,5.0569,5.0582,5.0583,5.058,5.0584,5.0584,5.06,5.059,5.0575,5.0574,5.0573,5.0572,0,5.0202,5.0205,5.0296,5.0324,5.0332,5.0394,5.0416,5.0465,5.047,5.0537,5.0552,5.0559,5.0615,5.0613,5.0677,5.0673,5.077,5.0758,5.076,5.0756,5.082,5.0813,5.1032,5.1059,5.0871,5.0873,5.0874,0,5.03,5.0359,5.0393,5.0427,5.0447,5.0502,5.0535,5.0527,5.0562,5.0603,5.0646,5.07,5.0743,5.0835,5.0844,5.0892,5.088,5.0953,5.0886,5.0888,5.0878,5.0873,5.0878,5.0965,5.0968,5.0969,5.0971,0,5.0473,5.0471,5.052,5.057,5.061,5.0648,5.0684,5.0713,5.0707,5.0748,5.0806,5.0839,5.0905,5.0958,5.1004,5.1019,5.0993,5.0992,5.1009,5.1012,5.101,5.1009,5.0793,5.0986,5.0985,5.0984,5.0983,5.0982,5.0597,5.0647,5.0678,5.0733,5.0759,5.0792,5.0839,5.0849,5.0898,5.0951,5.0943,5.1007,5.1036,5.1096,5.1115,5.1164,5.1138,5.1163,5.1169,5.1175,5.1181,5.1004,5.1173,5.1172,5.1172,5.1171,5.1171,0,5.0766,5.0784,5.0836,5.0886,5.0928,5.0903,5.094,5.0977,5.1034,5.1064,5.1107,5.1172,5.1224,5.1237,5.1286,5.1322,5.1311,5.1335,5.1331,5.1334,5.1203,5.1182,5.1343,5.1343,5.1343,5.1343,5.1342,5.1342,5.0859,5.0941,5.0943,5.1037,5.1054,5.1118,5.1141,5.1171,5.1194,5.1269,5.1312,5.1321,5.1344,5.1394,5.1439,5.1441,5.1459,5.1487,5.1485,5.1361,5.1344,5.1327,5.1308,5.1492,5.1492,5.1612,5.1613,5.1614]}]]